Location: Roland
(31.1349°N, 85.4372°W)
Time: 21:42:45
(UTC+00:00)

Tiros 1 - Pass Details

Date: 23 April 2021
Orbit: 630 x 664 km, 48.4° (Epoch: 05 May)

Event Time Altitude Azimuth Distance (km) Brightness Sun altitude
Rises 17:37:33 0° 321° (NW) 2,922 10.4 71.6°
Reaches altitude 10° 17:41:33 10° 355° (N) 2,008 9.6 71.6°
Maximum altitude 17:43:06 11° 15° (NNE) 1,909 9.5 71.6°
Drops below altitude 10° 17:44:39 10° 35° (NE) 2,005 9.6 71.6°
Sets 17:48:38 0° 68° (ENE) 2,911 10.4 71.5°
